Wind_Speed
12 13 12 12 13 12 13 14 14 15 14 14 14 14 14 14 14 15 15 14 16 15 16 15 15 16 16 16 15 16 15 15 14 14 13 13 14 13 13 13 13 13 13 12
13 13 13 13 13 14 14 14 14 15 15 15 14 15 14 15 15 15 15 15 16 16 16 16 16 17 16 15 15 15 15 14 14 14 14 14 14 14 14 14 14 14 14 14
13 13 13 14 15 15 14 14 14 16 16 16 15 14 15 15 16 16 15 14 15 15 15 15 16 17 16 16 16 16 16 15 14 15 14 14 15 15 15 15 15 16 16 15
13 13 14 15 15 15 15 16 16 16 16 15 15 16 16 16 16 17 15 15 16 16 16 16 16 16 16 16 17 16 16 16 15 15 15 15 15 15 16 16 16 16 16 16
13 14 15 16 16 16 16 16 16 16 16 15 15 17 16 17 17 17 16 16 16 17 17 17 16 16 17 17 17 17 17 17 16 16 16 17 16 16 16 17 16 16 16 16
14 14 15 16 15 16 16 16 15 15 16 16 15 17 17 18 18 18 18 18 17 17 17 17 17 17 17 18 18 18 19 19 18 18 18 18 18 18 18 17 17 16 16 16
14 15 16 15 15 16 16 15 14 14 15 16 16 18 18 18 19 19 19 18 18 18 18 18 18 17 18 18 19 19 19 19 19 20 19 19 20 19 19 18 18 18 18 17
14 15 16 15 16 16 16 16 15 15 15 17 17 19 19 19 20 21 20 19 19 19 19 19 19 19 19 19 19 19 19 19 19 20 20 20 21 20 20 19 19 19 19 19
15 15 15 15 16 16 16 16 16 17 17 16 17 19 19 19 20 20 21 20 20 20 19 20 20 20 20 20 19 19 19 19 20 21 21 21 20 20 20 19 19 19 20 19
16 16 16 16 16 17 17 16 16 18 16 16 16 18 19 20 20 20 21 21 20 21 21 21 21 21 21 20 20 19 20 20 21 21 21 21 21 21 21 20 19 19 20 20
17 17 16 17 17 17 17 17 18 18 18 17 17 18 19 19 21 21 22 21 21 21 21 21 21 21 21 21 21 21 21 21 21 22 21 21 22 22 21 21 20 20 20 21
17 18 17 17 18 19 19 19 19 20 19 19 18 19 19 20 21 22 23 23 22 22 22 23 22 22 22 22 22 22 22 22 22 22 22 22 22 22 22 21 21 21 21 22
18 18 18 17 18 20 21 20 21 21 22 21 21 20 20 21 21 22 23 23 23 22 22 23 23 23 23 23 23 23 22 22 22 22 23 22 22 22 22 22 22 22 22 22
19 19 19 18 19 21 22 21 22 23 23 23 23 22 21 23 23 23 23 23 23 23 23 23 23 23 23 23 23 24 24 23 23 23 23 23 23 23 23 22 22 22 22 22
19 19 20 20 19 21 22 22 23 24 24 24 24 25 23 23 24 25 25 25 25 25 25 24 24 24 24 24 24 24 24 24 23 24 23 23 23 23 23 22 21 21 22 22
19 20 20 21 20 21 22 22 23 24 25 25 26 26 25 24 25 25 25 25 25 25 25 24 24 24 24 23 23 24 24 24 24 24 24 24 24 22 22 21 21 21 22 21
19 20 21 20 21 23 23 22 23 23 24 25 26 26 25 26 26 26 27 27 26 26 26 26 26 25 25 25 24 23 24 24 24 23 23 22 23 23 22 22 21 21 21 21
18 19 22 21 21 23 21 21 22 23 24 25 26 26 27 27 27 28 28 28 27 26 26 26 26 26 26 25 25 24 24 23 23 23 22 22 22 22 22 22 22 22 22 21
19 19 20 22 23 24 22 22 23 23 23 25 26 27 27 28 28 28 28 29 28 27 27 27 26 26 26 25 25 25 24 24 24 23 23 23 23 23 23 23 23 23 22 22
20 21 21 21 23 24 23 24 24 24 25 25 26 27 28 28 29 28 28 29 28 27 27 28 28 27 27 26 26 26 26 25 24 24 24 24 23 23 23 23 23 23 23 23
21 21 22 22 23 23 23 24 25 25 26 26 25 26 27 28 30 30 29 29 29 28 28 29 29 28 28 27 27 27 27 26 26 25 26 26 25 24 24 25 24 24 24 24
22 23 22 22 24 24 24 25 25 25 26 26 26 26 27 28 29 29 29 29 29 29 28 29 29 29 28 28 28 28 27 27 27 27 27 27 26 26 26 26 26 26 25 25
22 23 24 23 24 25 25 26 26 26 27 27 27 27 27 28 28 28 28 28 28 29 29 29 29 30 29 29 29 29 28 27 28 28 27 27 27 27 27 27 27 27 26 26
22 23 24 24 24 25 26 26 27 27 27 27 28 28 28 29 29 29 29 29 29 29 29 29 29 30 30 29 29 29 29 29 28 28 29 30 29 29 29 29 29 29 28 28
23 24 25 26 26 26 27 27 27 27 26 27 28 29 29 30 30 29 29 29 29 29 29 29 29 30 30 29 30 30 30 30 30 30 30 31 31 31 31 31 30 29 29 29
24 25 25 25 27 27 27 28 28 28 27 27 28 28 28 29 29 29 29 29 29 30 29 30 30 30 30 30 30 29 29 30 30 30 31 31 32 32 31 30 30 30 30 30
Wind_Direction
241 242 246 249 249 249 254 258 265 268 272 273 273 272 271 272 271 270 267 266 268 269 268 268 273 272 271 274 276 276 276 275 275 273 271 271 270 270 272 276 276 275 277 280
242 245 246 246 246 250 256 258 263 270 274 275 272 270 272 271 273 273 271 270 269 269 269 270 272 272 272 274 275 276 277 276 275 272 271 272 274 271 272 276 276 275 275 277
244 244 245 247 248 251 255 260 263 269 272 272 273 271 274 274 274 272 271 269 271 271 272 272 272 271 271 271 273 275 276 275 277 274 272 275 276 275 274 275 275 275 275 276
245 245 245 249 252 253 255 261 263 266 269 269 272 273 275 277 273 276 273 268 269 271 272 272 271 270 269 271 272 273 274 274 275 274 272 273 274 276 276 277 275 273 274 275
247 249 250 250 252 254 258 261 262 264 266 267 271 274 275 276 275 276 275 271 268 269 272 272 270 270 272 272 273 272 272 272 273 272 271 272 274 276 276 276 275 273 271 273
254 254 253 255 256 257 258 259 261 264 266 267 270 273 272 271 275 277 276 273 270 270 271 271 270 270 272 273 273 272 271 270 271 271 271 273 276 277 275 273 272 272 271 271
258 258 258 259 259 257 256 257 260 261 264 269 268 268 272 271 274 276 275 274 272 269 268 269 273 270 272 273 274 274 271 270 271 271 272 273 275 275 272 271 271 271 271 271
260 261 261 261 259 257 255 254 253 256 258 263 265 269 273 274 275 274 273 271 270 270 270 270 272 273 274 274 275 275 274 273 272 271 272 274 274 273 273 272 270 270 271 271
258 259 264 261 258 257 255 252 252 256 261 262 264 269 271 274 274 272 271 273 273 273 274 272 271 272 274 276 276 274 273 274 274 273 273 273 273 274 273 271 270 269 271 272
258 259 261 264 259 255 254 253 252 255 262 261 261 268 273 273 274 275 274 274 275 273 273 274 274 273 272 273 273 274 274 274 274 274 275 275 276 277 275 272 271 270 271 273
258 262 262 263 263 261 256 254 255 256 259 259 262 263 267 271 275 276 276 275 274 274 274 275 276 276 275 274 275 275 275 275 275 275 275 276 275 275 273 272 271 272 273 274
257 261 265 266 267 264 261 258 256 255 256 257 261 263 266 270 272 275 276 276 274 274 276 277 277 276 277 276 276 276 275 274 274 274 275 276 275 274 272 271 270 271 273 275
260 261 264 266 266 265 263 263 259 257 256 257 259 264 267 271 271 273 275 277 277 276 274 274 276 276 276 276 276 276 276 276 274 275 275 276 275 272 271 271 270 270 270 272
261 260 260 259 263 266 267 265 261 258 257 258 258 262 266 270 271 273 274 275 275 274 274 274 274 274 274 275 274 274 275 275 274 275 276 276 275 273 271 270 268 268 269 272
261 262 262 260 261 264 264 265 263 261 259 259 260 260 264 266 269 273 273 273 275 274 273 271 271 270 272 272 272 273 274 274 274 274 274 275 274 272 270 268 267 267 268 270
264 265 264 262 261 261 264 264 263 263 261 261 262 263 265 265 267 269 271 273 275 273 272 270 268 268 269 272 272 272 274 273 274 274 273 273 273 271 268 266 266 267 267 270
270 268 268 267 267 265 266 269 267 265 265 264 264 265 266 265 267 268 269 272 275 273 271 270 270 269 270 273 273 270 270 271 272 272 273 273 271 268 266 266 266 266 268 270
276 275 271 270 270 269 272 271 270 268 267 267 266 265 265 265 266 267 269 271 271 271 270 270 271 270 271 272 272 272 270 270 270 269 270 272 271 267 265 265 265 265 267 269
274 277 276 272 272 272 270 271 271 270 269 269 269 268 267 267 267 267 269 271 271 270 270 270 270 270 272 271 271 271 270 271 271 269 270 270 269 269 266 264 265 265 267 268
277 275 275 277 275 272 274 273 274 274 273 272 272 271 271 269 268 268 269 269 271 271 271 270 269 269 270 269 269 270 271 271 270 269 269 268 268 268 267 265 265 266 267 268
283 280 277 275 275 275 276 275 276 275 276 275 274 274 272 271 270 270 269 269 270 271 270 269 269 268 268 268 267 268 269 268 268 269 269 268 267 267 267 266 266 267 268 266
282 282 281 279 276 277 277 278 277 276 275 276 275 274 272 272 273 272 270 270 270 271 269 268 268 268 268 267 266 266 267 267 266 267 268 267 266 266 267 267 268 268 268 267
281 281 280 279 279 278 279 278 279 278 278 278 277 276 275 275 275 274 273 272 271 271 271 269 268 268 268 266 266 265 265 266 266 267 266 265 266 265 266 267 268 267 266 268
281 282 279 278 278 277 278 278 279 280 280 279 279 278 278 278 278 276 276 274 271 271 272 272 271 269 269 267 266 266 265 265 266 266 266 265 266 265 265 266 267 267 267 268
278 278 278 278 278 278 276 278 278 279 280 280 279 278 277 277 278 276 276 275 273 272 272 271 272 271 270 269 266 266 266 265 266 267 267 267 266 266 265 265 267 268 267 267
275 276 279 279 279 279 277 276 279 280 281 281 280 279 278 277 277 275 275 276 276 274 273 272 271 271 270 269 268 266 265 265 265 266 267 267 266 265 266 265 265 266 267 269
Height
5809 5811 5812 5814 5815 5817 5817 5818 5819 5819 5819 5820 5820 5821 5821 5821 5821 5822 5822 5822 5823 5823 5824 5824 5825 5826 5826 5826 5827 5827 5827 5827 5828 5828 5828 5829 5829 5830 5830 5830 5830 5830 5831 5831
5807 5808 5810 5811 5812 5814 5814 5815 5816 5816 5816 5816 5817 5817 5817 5817 5818 5818 5818 5818 5819 5820 5821 5821 5822 5822 5822 5823 5823 5823 5824 5824 5825 5825 5825 5826 5826 5826 5827 5827 5827 5827 5828 5828
5804 5806 5807 5808 5809 5810 5811 5812 5812 5813 5813 5813 5814 5815 5814 5814 5815 5815 5815 5815 5816 5817 5818 5818 5819 5819 5819 5820 5820 5820 5821 5821 5821 5821 5822 5822 5823 5823 5823 5824 5824 5824 5824 5824
5800 5802 5803 5804 5806 5807 5808 5809 5809 5809 5809 5810 5811 5811 5811 5810 5811 5811 5811 5812 5813 5813 5814 5814 5815 5815 5815 5816 5816 5817 5817 5818 5818 5818 5819 5819 5819 5820 5820 5820 5820 5820 5820 5821
5797 5799 5800 5801 5802 5803 5804 5805 5806 5806 5806 5807 5807 5807 5808 5807 5807 5808 5808 5808 5809 5809 5810 5810 5810 5811 5811 5812 5812 5813 5813 5814 5814 5814 5815 5815 5815 5816 5816 5815 5816 5816 5817 5817
5793 5795 5796 5797 5798 5800 5801 5802 5802 5802 5802 5803 5804 5805 5805 5804 5804 5805 5805 5805 5805 5806 5806 5806 5806 5807 5807 5808 5808 5808 5809 5809 5810 5810 5810 5811 5811 5811 5811 5811 5812 5812 5812 5813
5789 5791 5792 5793 5794 5795 5796 5797 5798 5798 5799 5800 5801 5801 5802 5801 5801 5801 5801 5801 5802 5802 5802 5802 5801 5802 5803 5803 5803 5803 5804 5804 5805 5805 5806 5806 5806 5806 5807 5807 5807 5808 5808 5808
5786 5787 5788 5789 5790 5791 5792 5794 5795 5796 5797 5797 5797 5797 5798 5797 5797 5797 5797 5798 5798 5797 5797 5798 5798 5798 5798 5798 5798 5798 5799 5799 5800 5800 5800 5801 5801 5801 5802 5802 5802 5803 5803 5804
5782 5783 5784 5785 5786 5787 5788 5789 5791 5792 5792 5793 5794 5794 5794 5793 5793 5793 5793 5793 5793 5793 5793 5793 5793 5794 5793 5793 5793 5794 5794 5794 5795 5795 5795 5795 5796 5796 5796 5797 5797 5798 5798 5798
5778 5779 5780 5781 5782 5783 5785 5785 5787 5787 5788 5789 5790 5790 5790 5789 5789 5789 5789 5789 5789 5789 5789 5789 5789 5789 5789 5789 5789 5789 5788 5789 5789 5789 5790 5790 5790 5790 5791 5791 5792 5792 5793 5793
5774 5775 5776 5777 5777 5779 5780 5781 5781 5782 5784 5785 5785 5788 5785 5784 5784 5784 5784 5784 5785 5784 5784 5784 5784 5784 5784 5784 5784 5784 5784 5784 5784 5784 5784 5784 5784 5784 5785 5786 5786 5787 5787 5787
5769 5770 5771 5772 5773 5774 5775 5776 5777 5778 5779 5779 5780 5783 5780 5780 5779 5779 5779 5779 5779 5780 5779 5779 5779 5779 5779 5779 5778 5778 5778 5778 5778 5778 5778 5778 5778 5778 5779 5780 5780 5781 5781 5781
5764 5766 5766 5767 5770 5769 5769 5770 5771 5772 5773 5774 5775 5778 5775 5775 5774 5774 5774 5774 5774 5774 5774 5774 5774 5773 5773 5773 5773 5772 5772 5772 5772 5772 5772 5772 5772 5772 5773 5773 5774 5774 5775 5775
5759 5760 5762 5763 5763 5763 5763 5764 5765 5766 5767 5768 5769 5770 5770 5769 5768 5768 5769 5768 5768 5768 5768 5768 5768 5767 5767 5767 5767 5766 5766 5766 5766 5766 5766 5766 5766 5766 5766 5767 5767 5768 5768 5769
5754 5754 5754 5755 5756 5757 5757 5758 5759 5760 5761 5762 5763 5763 5764 5763 5762 5762 5762 5762 5762 5762 5761 5761 5761 5761 5761 5760 5760 5760 5760 5759 5759 5759 5759 5759 5759 5760 5760 5761 5761 5762 5762 5762
5748 5749 5749 5750 5751 5751 5751 5752 5753 5754 5754 5755 5756 5757 5757 5756 5756 5756 5755 5755 5755 5755 5755 5755 5755 5754 5754 5753 5753 5753 5753 5753 5752 5752 5752 5752 5753 5753 5753 5754 5755 5755 5756 5755
5742 5743 5743 5744 5744 5744 5745 5746 5746 5747 5748 5748 5748 5750 5749 5749 5749 5749 5748 5748 5748 5748 5748 5748 5748 5747 5747 5746 5746 5746 5746 5746 5746 5745 5746 5745 5746 5746 5747 5748 5749 5749 5750 5750
5738 5737 5737 5738 5738 5738 5742 5740 5740 5740 5740 5741 5741 5741 5741 5741 5742 5742 5741 5741 5741 5741 5741 5741 5740 5740 5739 5739 5739 5739 5739 5739 5739 5739 5739 5739 5739 5740 5741 5741 5742 5742 5743 5743
5732 5732 5732 5732 5731 5732 5734 5733 5733 5733 5734 5734 5734 5733 5733 5733 5734 5734 5734 5734 5734 5734 5734 5733 5733 5733 5732 5732 5732 5732 5732 5732 5732 5732 5733 5733 5733 5734 5734 5734 5735 5736 5736 5737
5727 5727 5727 5726 5725 5725 5728 5727 5726 5728 5727 5726 5726 5726 5725 5725 5725 5726 5726 5726 5726 5726 5726 5725 5725 5725 5725 5725 5725 5725 5725 5725 5725 5726 5726 5726 5727 5727 5727 5728 5729 5729 5730 5731
5721 5721 5721 5720 5719 5719 5721 5720 5720 5721 5720 5718 5718 5717 5717 5717 5717 5718 5717 5717 5717 5717 5717 5717 5717 5717 5717 5717 5717 5717 5718 5718 5718 5719 5719 5719 5720 5721 5721 5721 5722 5723 5723 5724
5715 5714 5714 5714 5713 5716 5714 5713 5714 5713 5711 5711 5710 5709 5709 5709 5708 5708 5708 5708 5709 5708 5708 5709 5709 5709 5709 5709 5709 5709 5710 5710 5710 5711 5711 5712 5713 5713 5714 5715 5715 5715 5716 5717
5709 5710 5708 5708 5709 5707 5706 5706 5705 5704 5704 5703 5702 5702 5702 5701 5701 5700 5700 5700 5700 5700 5700 5700 5700 5700 5701 5701 5701 5701 5702 5702 5702 5703 5703 5704 5705 5706 5706 5707 5708 5708 5708 5709
5703 5702 5701 5701 5701 5700 5699 5698 5697 5697 5696 5696 5695 5695 5694 5693 5693 5692 5692 5691 5691 5691 5691 5691 5691 5691 5692 5692 5692 5692 5693 5694 5694 5695 5695 5696 5697 5698 5699 5699 5700 5700 5701 5701
5696 5695 5694 5694 5694 5693 5692 5691 5689 5689 5689 5688 5687 5687 5686 5685 5684 5684 5683 5683 5682 5683 5683 5683 5682 5682 5683 5682 5683 5683 5684 5684 5685 5686 5687 5687 5688 5689 5690 5691 5692 5692 5692 5693
5689 5688 5687 5687 5686 5685 5684 5683 5682 5681 5681 5680 5679 5678 5677 5676 5676 5675 5675 5674 5674 5673 5673 5673 5673 5673 5673 5673 5674 5674 5675 5675 5676 5677 5678 5678 5679 5680 5681 5682 5683 5683 5684 5685